Location: Newark
(22.3060°N, 114.2134°E)
Time: 21:44:44
(UTC+00:00)

Explorer 11/Cluster Stage 4 - Pass Details

Date: 29 July 2021
Orbit: 467 x 1256 km, 28.8° (Epoch: 26 September)

Event Time Altitude Azimuth Distance (km) Brightness Sun altitude
Rises 01:44:57 0° 247° (WSW) 4,119 9.9 51.4°
Reaches altitude 10° 01:47:48 10° 247° (WSW) 3,196 9.5 52.0°
Maximum altitude 01:56:03 86° 160° (SSE) 1,250 8.7 53.9°
Drops below altitude 10° 02:04:00 10° 71° (ENE) 3,079 10.3 55.8°
Sets 02:06:42 0° 71° (ENE) 3,962 10.7 56.4°
